MST,Max TemperatureF,Mean TemperatureF,Min TemperatureF,Max Dew PointF,MeanDew PointF,Min DewpointF,Max Humidity, Mean Humidity, Min Humidity, Max Sea Level PressureIn, Mean Sea Level PressureIn, Min Sea Level PressureIn, Max VisibilityMiles, Mean VisibilityMiles, Min VisibilityMiles, Max Wind SpeedMPH, Mean Wind SpeedMPH, Max Gust SpeedMPH,PrecipitationIn, CloudCover, Events, WindDirDegrees
2013-1-1,29,17,4,23,10,1,92,84,74,30.20,30.08,29.99,10,4,0,21,8,29,T,8,Fog-Snow,253
2013-1-2,28,19,9,20,16,7,87,79,71,30.42,30.25,30.09,10,8,1,21,13,26,T,7,Snow,293
2013-1-3,18,7,-5,9,1,-7,92,81,68,30.38,30.24,30.07,10,9,2,16,5,,0.00,0,,248
2013-1-4,23,11,-2,14,5,-4,92,82,71,30.21,30.13,29.95,10,10,8,20,6,,0.00,0,,250
2013-1-5,21,10,-1,13,8,-3,92,80,71,30.32,30.26,30.14,10,10,7,17,8,,0.00,0,,248
2013-1-6,27,13,-2,19,9,-4,88,81,69,30.23,29.97,29.86,10,10,10,15,4,,0.00,0,,255
2013-1-7,25,15,5,22,14,4,91,80,72,29.96,29.82,29.57,10,8,1,13,7,,0.03,2,Snow,298
2013-1-8,36,25,14,31,23,10,93,81,71,30.09,29.80,29.53,10,10,3,21,9,31,0.01,3,Rain-Snow,252
2013-1-9,39,22,5,29,19,5,88,81,72,30.10,29.92,29.66,10,10,10,9,4,,0.00,2,,60
2013-1-10,36,27,17,30,21,12,92,85,79,29.81,29.68,29.51,10,9,4,28,8,38,T,4,Rain,23
2013-1-11,17,10,3,12,5,-4,92,81,70,30.26,29.91,29.73,10,2,0,37,22,47,0.01,8,Fog-Snow,13
2013-1-12,4,-5,-15,-5,-10,-17,86,73,66,30.36,30.31,30.16,10,10,7,10,6,,0.00,1,,261
2013-1-13,9,-2,-13,0,-5,-17,85,77,67,30.39,30.31,30.16,10,10,8,9,6,,T,7,,261
2013-1-14,8,-3,-14,2,-4,-16,92,83,76,30.34,30.21,30.06,10,9,2,6,2,,T,7,,285
2013-1-15,38,23,7,31,22,3,93,82,73,30.00,29.87,29.76,10,9,2,24,9,31,T,8,Rain-Snow,255
2013-1-16,39,37,34,32,30,29,85,79,75,30.29,30.06,29.80,10,10,10,17,12,17,0.00,8,,270
2013-1-17,37,32,27,30,27,22,92,84,67,30.35,30.17,29.89,10,10,10,8,5,,0.00,5,,257
2013-1-18,38,32,26,29,26,21,82,75,70,29.92,29.86,29.79,10,10,10,16,9,,0.00,3,,257
2013-1-19,35,23,10,28,11,3,85,75,68,30.44,30.28,29.94,10,9,2,22,10,28,T,7,Snow,20
2013-1-20,14,-1,-17,9,-2,-18,92,75,56,30.78,30.53,30.27,10,6,1,17,6,24,0.02,5,Snow,344
2013-1-21,5,1,-4,0,-4,-14,85,75,59,30.61,30.35,30.16,10,5,1,12,6,,0.02,8,Snow,66
2013-1-22,15,9,3,8,4,-1,88,81,73,30.36,30.27,30.21,10,10,9,10,5,,T,3,,329
2013-1-23,10,4,-3,3,-1,-6,88,75,61,30.56,30.45,30.25,10,10,10,16,6,,0.00,2,,85
2013-1-24,29,19,8,20,13,2,89,78,72,30.20,30.06,29.95,10,10,10,15,10,25,T,2,,169
2013-1-25,19,11,3,13,8,0,92,85,78,30.20,30.11,30.01,10,7,2,13,7,,0.00,1,,69
2013-1-26,34,22,9,25,16,7,92,84,66,29.99,29.93,29.83,10,8,6,10,2,,0.00,2,,69
2013-1-27,35,27,19,30,25,17,93,89,81,29.86,29.81,29.74,10,7,3,13,5,,0.02,7,Rain-Snow,253
2013-1-28,32,19,5,23,16,3,92,83,67,29.89,29.84,29.80,10,10,8,12,4,,0.00,0,,252
2013-1-29,18,6,-6,14,0,-15,93,78,65,30.43,30.09,29.78,10,5,0,31,9,38,T,7,Fog-Snow,329
2013-1-30,3,-3,-9,-2,-9,-18,80,71,65,30.41,30.14,29.94,10,6,1,18,6,20,T,7,Snow,322
2013-1-31,2,-9,-21,-4,-18,-27,76,67,61,30.57,30.43,30.16,10,10,10,9,6,,0.00,4,,294